Date String (YYYY-MM-DD hh:mm:ss) UTC,Instrument flags,Ambient pressure (hPa),Sample flow (lpm),Bypass flow (lpm),Sample temperature (°C),Ambient temperature (°C),ASC tube jacket temperature (°C),LED temperature (°C),Box temperature (°C),Sample RH (%),Span deviation,Mass concentration (μg/m³),Mass concentration (μg/m³),Mass concentration (μg/m³)
DateTimeUTC,F1_M11,P_M11,Q1_M11,Q2_M11,T1_M11,T2_M11,T3_M11,T4_M11,T5_M11,U1_M11,ZSPAN_M11,X0_M11,X2_M11,X1_M11
2022-12-20 23:00:00,,0826.8,4.98,0.00,23.6,22.3,00.0,32.4,25.4,08.1,0001.6,0046.36,0016.27,0012.51
2022-12-20 23:01:00,,0826.8,4.99,0.00,23.6,22.3,00.0,32.4,25.4,08.1,0001.4,0047.04,0016.42,0012.61
2022-12-20 23:02:00,,0826.8,5.04,0.00,23.6,22.3,00.0,32.4,25.4,08.2,0001.6,0046.94,0016.49,0012.69
2022-12-20 23:03:00,,0826.9,5.00,0.00,23.6,22.3,00.0,32.4,25.4,08.2,0002.1,0047.16,0016.66,0012.78
2022-12-20 23:04:00,,0827.0,4.98,0.00,23.6,22.3,00.0,32.4,25.4,08.2,0002.3,0047.16,0016.81,0012.86
2022-12-20 23:05:00,,0826.8,5.03,0.00,23.6,22.3,00.0,32.4,25.4,08.2,0002.2,0045.78,0016.95,0012.93
2022-12-20 23:06:00,,0826.9,4.98,0.00,23.5,22.2,00.0,32.4,25.4,08.1,0002.6,0045.63,0017.02,0012.97
2022-12-20 23:07:00,,0826.8,4.99,0.00,23.6,22.2,00.0,32.4,25.4,08.1,0003.0,0044.49,0017.12,0013.00
2022-12-20 23:08:00,,0827.0,5.04,0.00,23.5,22.2,00.0,32.4,25.4,08.1,0002.9,0045.73,0017.22,0013.04
2022-12-20 23:09:00,,0826.9,4.95,0.00,23.5,22.2,00.0,32.4,25.3,08.1,0003.0,0046.41,0017.30,0013.06
2022-12-20 23:10:00,,0826.8,5.02,0.00,23.5,22.2,00.0,32.4,25.3,08.2,0002.8,0047.42,0017.32,0013.05
2022-12-20 23:11:00,,0826.8,5.01,0.00,23.5,22.2,00.0,32.4,25.3,08.2,0003.0,0047.82,0017.40,0013.08
2022-12-20 23:12:00,,0826.7,4.95,0.00,23.5,22.2,00.0,32.4,25.3,08.3,0003.0,0047.39,0017.48,0013.12
2022-12-20 23:13:00,,0826.7,5.02,0.00,23.5,22.2,00.0,32.4,25.3,08.3,0003.2,0047.91,0017.58,0013.14
2022-12-20 23:14:00,,0826.7,5.01,0.00,23.5,22.2,00.0,32.4,25.3,08.3,0003.2,0047.72,0017.63,0013.15
2022-12-20 23:15:00,,0826.7,4.95,0.00,23.5,22.2,00.0,32.4,25.4,08.3,0003.3,0047.35,0017.58,0013.16
2022-12-20 23:16:00,,0826.7,5.03,0.00,23.5,22.2,00.0,32.4,25.4,08.4,0003.3,0048.24,0017.55,0013.17
2022-12-20 23:17:00,,0826.8,5.00,0.00,23.5,22.2,00.0,32.4,25.3,08.5,0003.0,0047.86,0017.51,0013.19
2022-12-20 23:18:00,,0826.8,4.98,0.00,23.5,22.2,00.0,32.4,25.3,08.5,0002.6,0049.70,0017.45,0013.22
2022-12-20 23:19:00,,0826.8,5.03,0.00,23.5,22.2,00.0,32.4,25.3,08.6,0002.3,0048.03,0017.48,0013.25
2022-12-20 23:20:00,,0826.8,4.97,0.00,23.6,22.2,00.0,32.4,25.4,08.6,0001.8,0048.32,0017.49,0013.32
2022-12-20 23:21:00,,0826.8,5.00,0.00,23.6,22.2,00.0,32.4,25.4,08.6,0001.7,0047.53,0017.55,0013.38
2022-12-20 23:22:00,,0826.8,5.03,0.00,23.6,22.2,00.0,32.4,25.4,08.6,0001.6,0047.06,0017.54,0013.44
2022-12-20 23:23:00,,0826.8,4.99,0.00,23.6,22.2,00.0,32.4,25.4,08.6,0001.5,0047.12,0017.56,0013.50
2022-12-20 23:24:00,,0826.9,4.98,0.00,23.6,22.2,00.0,32.4,25.4,08.6,0001.8,0047.96,0017.51,0013.56
2022-12-20 23:25:00,,0826.8,5.03,0.00,23.6,22.2,00.0,32.4,25.4,08.6,0001.7,0048.73,0017.48,0013.62
2022-12-20 23:26:00,,0826.8,5.02,0.00,23.6,22.2,00.0,32.4,25.4,08.6,0001.2,0050.27,0017.56,0013.70
2022-12-20 23:27:00,,0826.8,4.95,0.00,23.6,22.2,00.0,32.4,25.4,08.6,0001.5,0049.52,0017.76,0013.86
2022-12-20 23:28:00,,0826.8,5.02,0.00,23.6,22.2,00.0,32.4,25.4,08.6,0002.2,0050.42,0018.01,0014.05
2022-12-20 23:29:00,,0826.8,5.03,0.00,23.6,22.2,00.0,32.4,25.4,08.6,0003.1,0048.32,0018.27,0014.22
2022-12-20 23:30:00,,0827.1,4.95,0.00,23.5,22.2,00.0,32.4,25.4,08.6,0003.2,0048.29,0018.44,0014.40
2022-12-20 23:31:00,,0827.1,5.03,0.00,23.5,22.2,00.0,32.4,25.4,08.6,0003.6,0048.68,0018.69,0014.60
2022-12-20 23:32:00,,0826.9,5.03,0.00,23.6,22.2,00.0,32.4,25.4,08.7,0003.8,0050.14,0018.99,0014.81
2022-12-20 23:33:00,,0826.9,4.95,0.00,23.5,22.2,00.0,32.4,25.4,08.7,0004.0,0051.44,0019.29,0014.99
2022-12-20 23:34:00,,0826.8,5.03,0.00,23.5,22.2,00.0,32.4,25.4,08.7,0004.0,0052.15,0019.53,0015.17
2022-12-20 23:35:00,,0827.1,5.01,0.00,23.5,22.2,00.0,32.4,25.4,08.7,0003.6,0053.12,0019.74,0015.33
2022-12-20 23:36:00,,0826.8,4.96,0.00,23.5,22.2,00.0,32.4,25.4,08.7,0004.0,0055.06,0019.92,0015.50
2022-12-20 23:37:00,,0826.7,5.04,0.00,23.5,22.2,00.0,32.4,25.4,08.7,0003.9,0055.09,0020.09,0015.66
2022-12-20 23:38:00,,0826.7,4.96,0.00,23.5,22.2,00.0,32.4,25.4,08.7,0003.9,0054.45,0020.15,0015.73
2022-12-20 23:39:00,,0826.8,5.01,0.00,23.5,22.2,00.0,32.4,25.4,08.7,0004.0,0053.26,0020.20,0015.78
2022-12-20 23:40:00,,0826.8,5.02,0.00,23.5,22.1,00.0,32.4,25.3,08.7,0004.2,0054.97,0020.16,0015.84
2022-12-20 23:41:00,,0826.8,4.95,0.00,23.5,22.1,00.0,32.4,25.3,08.7,0004.5,0057.22,0020.17,0015.88
2022-12-20 23:42:00,,0826.8,5.03,0.00,23.5,22.1,00.0,32.4,25.2,08.7,0004.6,0057.22,0020.13,0015.90
2022-12-20 23:43:00,,0826.8,5.02,0.00,23.5,22.1,00.0,32.4,25.3,08.7,0004.5,0057.65,0020.07,0015.89
2022-12-20 23:44:00,,0826.7,4.96,0.00,23.4,22.1,00.0,32.3,25.2,08.7,0004.4,0056.55,0020.03,0015.92
2022-12-20 23:45:00,,0826.7,5.03,0.00,23.4,22.1,00.0,32.3,25.2,08.7,0004.5,0055.57,0020.02,0015.97
2022-12-20 23:46:00,,0826.7,5.03,0.00,23.4,22.1,00.0,32.3,25.2,08.7,0004.5,0052.78,0020.03,0016.03
2022-12-20 23:47:00,,0826.7,4.95,0.00,23.4,22.1,00.0,32.3,25.2,08.6,0004.2,0050.67,0020.09,0016.11
2022-12-20 23:48:00,,0826.8,5.02,0.00,23.4,22.0,00.0,32.3,25.2,08.6,0004.4,0050.18,0020.09,0016.18
2022-12-20 23:49:00,,0826.8,4.97,0.00,23.4,22.0,00.0,32.3,25.1,08.6,0004.0,0049.68,0020.05,0016.25
2022-12-20 23:50:00,,0826.8,5.00,0.00,23.4,22.0,00.0,32.3,25.1,08.6,0003.7,0049.62,0020.06,0016.31
2022-12-20 23:51:00,,0826.8,5.02,0.00,23.4,21.9,00.0,32.3,25.1,08.6,0003.2,0049.16,0020.06,0016.35
2022-12-20 23:52:00,,0826.8,4.97,0.00,23.3,21.9,00.0,32.3,25.1,08.6,0002.8,0047.22,0020.02,0016.37
2022-12-20 23:53:00,,0826.7,5.01,0.00,23.3,21.9,00.0,32.3,25.1,08.7,0002.6,0049.35,0020.03,0016.37
2022-12-20 23:54:00,,0826.7,5.02,0.00,23.3,21.9,00.0,32.3,25.1,08.7,0002.7,0048.57,0020.01,0016.37
2022-12-20 23:55:00,,0826.6,4.95,0.00,23.3,21.9,00.0,32.2,25.1,08.7,0002.9,0049.20,0019.97,0016.35
2022-12-20 23:56:00,,0826.7,5.03,0.00,23.3,21.8,00.0,32.2,25.1,08.7,0002.9,0050.25,0019.92,0016.31
2022-12-20 23:57:00,,0826.7,5.02,0.00,23.3,21.8,00.0,32.2,25.0,08.7,0003.1,0051.21,0019.87,0016.26
2022-12-20 23:58:00,,0826.7,4.95,0.00,23.3,21.8,00.0,32.2,25.0,08.8,0003.4,0051.24,0019.75,0016.17
2022-12-20 23:59:00,,0826.7,5.03,0.00,23.3,21.8,00.0,32.2,25.0,08.8,0003.2,0050.55,0019.66,0016.05
